User: anonymous   Login
Location: Kirchberg
(47.4114°N, 9.0398°E)
Time: 22:11:54
(UTC+00:00)
Language:

SJ-6B - Orbit

View from above orbital plane
View from above orbital plane
View from above satellite
View from above satellite

Ground track
Ground track

The orbit data is extracted from the following two-line orbital elements,

1 28415U 04035C   21124.74675391  .00000267  00000-0  21620-4 0  9994
2 28415  97.5694 168.0066 0050664 338.1778  21.7291 15.07096860912025
Epoch (UTC): 04 May 2021 17:55:19
Eccentricity: 0.0050664
inclination: 97.5694°
perigee height: 510 km
apogee height: 580 km
right ascension of ascending node: 168.0066°
argument of perigee: 338.1778°
revolutions per day: 15.07096860
mean anomaly at epoch: 21.7291°
orbit number at epoch: 91202

The dashed part of the orbit path shows where the satellite is in the earth's shadow,  

DLR